User: anonymous   Login
Location: Bijele Vode
(45.2833°N, 16.2000°E)
Time: 17:27:03
(UTC+00:00)
Language:

DELFI C3 - Orbit

View from above orbital plane
View from above orbital plane
View from above satellite
View from above satellite

Ground track
Ground track

The orbit data is extracted from the following two-line orbital elements,

1 32789U 08021G   21337.06344274  .00003607  00000-0  22567-3 0  9997
2 32789  97.3605   5.8847 0009713 283.9973  76.0176 15.09988464742367
Epoch (UTC): 03 December 2021 01:31:21
Eccentricity: 0.0009713
inclination: 97.3605°
perigee height: 529 km
apogee height: 543 km
right ascension of ascending node: 5.8847°
argument of perigee: 283.9973°
revolutions per day: 15.09988464
mean anomaly at epoch: 76.0176°
orbit number at epoch: 74236

The dashed part of the orbit path shows where the satellite is in the earth's shadow,  

DLR